Weather History for Learmonth, WE

Change the Weather History Date:

Thursday, February 14, 2013

  Actual Average Record
Temperature  
Mean Temperature 92 °F -  
Max Temperature 105 °F 95 °F 113 °F (2007)
Min Temperature 80 °F 73 °F 69 °F (2002)
Cooling Degree Days 28    
Growing Degree Days 42 (Base 50)    
Moisture  
Dew Point 70 °F    
Average Humidity 54    
Maximum Humidity 84    
Minimum Humidity 17    
Precipitation  
Precipitation 0.00 in 0.04 in - ()
Sea Level Pressure  
Sea Level Pressure 29.72 in    
Wind  
Wind Speed 10 mph ()    
Max Wind Speed 21 mph    
Max Gust Speed 29 mph    
Visibility 6.6 miles    
Events Rain , Thunderstorm    
Averages and records for this station are not official NWS values.
T = Trace of Precipitation, MM = Missing Value Source: Averaged Metar Reports

Daily Weather History Graph

Daily Weather History Graph

Search for Another Location

Airport:

Trip Planner

Search our weather history database for the weather conditions in past years. The results will help you decide how hot, cold, wet, or windy it might be!

Date:

Astronomy

Feb. 14, 2013 Rise Set
Actual Time 6:12 AM AWST 7:02 PM AWST
Civil Twilight 5:49 AM AWST 7:26 PM AWST
Nautical Twilight 5:21 AM AWST 7:53 PM AWST
Astronomical Twilight 4:53 AM AWST 8:21 PM AWST
Moon 9:42 AM AWST (2/14) 9:34 PM AWST (2/14)
Length of Visible Light 13h 36m
Length of Day
12h 50m
Waxing Crescent, 17% of the Moon is Illuminated
Feb 14
Waxing Crescent
Feb 18
First Quarter
Feb 26
Full
Mar 5
Last Quarter
Mar 12
New

Hourly Weather History & Observations

Time (AWST) Temp. Heat Index Dew Point Humidity Pressure Visibility Wind Dir Wind Speed Gust Speed Precip Events Conditions
12:00 AM 87 °F - 69 °F 45% 29.79 in - East 8.1 mph - -  
12:00 AM 87.8 °F 91.4 °F 68.0 °F 52% 29.77 in 6.2 mi East 8.1 mph - N/A   Unknown
12:30 AM 86.0 °F 91.8 °F 71.6 °F 62% 29.77 in 6.2 mi East 6.9 mph - N/A   Unknown
1:00 AM 86.0 °F 96.9 °F 77.0 °F 74% 29.77 in 6.2 mi ENE 3.5 mph - N/A   Unknown
1:30 AM 82.4 °F 85.4 °F 68.0 °F 62% 29.74 in 6.2 mi South 4.6 mph - N/A   Unknown
2:00 AM 82 °F - 67 °F 53% 29.76 in - WSW 2.3 mph - -  
2:00 AM 82.4 °F 85.4 °F 68.0 °F 62% 29.74 in 6.2 mi WSW 2.3 mph - N/A   Unknown
2:59 AM 82.4 °F 88.2 °F 73.4 °F 74% 29.74 in 6.2 mi SSW 10.4 mph - N/A   Scattered Clouds
3:00 AM 83 °F - 74 °F 67% 29.75 in - SSW 10.4 mph - -  
3:00 AM 82.4 °F 88.2 °F 73.4 °F 74% 29.74 in 6.2 mi SSW 10.4 mph - N/A   Scattered Clouds
3:30 AM 82.4 °F 89.5 °F 75.2 °F 79% 29.74 in 6.2 mi SSW 11.5 mph - N/A   Unknown
4:00 AM 82.4 °F 89.5 °F 75.2 °F 79% 29.74 in 6.2 mi SSW 9.2 mph - N/A   Unknown
4:30 AM 80.6 °F 86.2 °F 75.2 °F 84% 29.74 in 6.2 mi South 11.5 mph - N/A   Unknown
5:00 AM 80 °F - 76 °F 83% 29.75 in - SSW 12.7 mph - -  
5:00 AM 80.6 °F 86.2 °F 75.2 °F 84% 29.74 in 6.2 mi SSW 12.7 mph - N/A   Unknown
5:30 AM 80.6 °F 86.2 °F 75.2 °F 84% 29.74 in 6.2 mi SSW 10.4 mph - N/A   Unknown
6:00 AM 80 °F - 75 °F 79% 29.75 in 6 mi SSW 11.5 mph - -   Haze
6:00 AM 80.6 °F 86.2 °F 75.2 °F 84% 29.74 in - SSW 11.5 mph - N/A   Clear
6:30 AM 80.6 °F 85.4 °F 73.4 °F 79% 29.74 in - SSW 11.5 mph - N/A   Clear
7:00 AM 82.4 °F 87.2 °F 71.6 °F 70% 29.77 in - SSW 13.8 mph - N/A   Clear
7:30 AM 82.4 °F 87.2 °F 71.6 °F 70% 29.77 in - South 17.3 mph - N/A   Clear
8:00 AM 83 °F - 71 °F 60% 29.78 in - South 16.1 mph - -  
8:00 AM 84.2 °F 89.6 °F 71.6 °F 66% 29.77 in - South 16.1 mph - N/A   Clear
8:30 AM 86.0 °F 91.8 °F 71.6 °F 62% 29.77 in - South 15.0 mph - N/A   Clear
9:00 AM 89 °F - 68 °F 41% 29.78 in 11 mi South 12.7 mph - -   Haze
9:00 AM 89.6 °F 93.4 °F 68.0 °F 49% 29.77 in - South 12.7 mph - N/A   Clear
9:30 AM 91.4 °F 94.0 °F 66.2 °F 43% 29.77 in - South 13.8 mph - N/A   Clear
10:00 AM 95.0 °F 97.0 °F 64.4 °F 36% 29.77 in - SE 12.7 mph - N/A   Clear
10:30 AM 93.2 °F 96.2 °F 66.2 °F 41% 29.77 in - SSE 11.5 mph - N/A   Clear
11:00 AM 96 °F - 62 °F 23% 29.78 in - SE 9.2 mph - -  
11:00 AM 95.0 °F 96.0 °F 62.6 °F 34% 29.77 in - SE 9.2 mph - N/A   Clear
11:30 AM 96.8 °F 100.7 °F 66.2 °F 37% 29.74 in - SE 8.1 mph - N/A   Clear
12:00 PM 97 °F - 67 °F 28% 29.74 in 11 mi ENE 6.9 mph - -   Partly Cloudy
12:00 PM 96.8 °F 101.8 °F 68.0 °F 39% 29.74 in - ENE 6.9 mph - N/A   Clear
12:30 PM 96.8 °F 100.7 °F 66.2 °F 37% 29.71 in - ENE 11.5 mph - N/A   Clear
1:00 PM 96.8 °F 99.0 °F 64.4 °F 34% 29.71 in - ENE 9.2 mph - N/A   Clear
1:30 PM 98.6 °F 102.8 °F 66.2 °F 35% 29.71 in - ENE 8.1 mph - N/A   Clear
2:00 PM 98 °F - 61 °F 20% 29.71 in - NE 9.2 mph - -  
2:00 PM 98.6 °F 99.4 °F 60.8 °F 29% 29.68 in - NE 9.2 mph - N/A   Clear
2:30 PM 100.4 °F 100.2 °F 59.0 °F 25% 29.68 in - NE 6.9 mph - N/A   Clear
3:00 PM 101 °F - 59 °F 17% 29.68 in 11 mi NE 5.8 mph - - Rain , Thunderstorm Thunderstorms and Rain
3:00 PM 102.2 °F 102.4 °F 59.0 °F 24% 29.65 in 6.2 mi NE 5.8 mph - N/A Rain , Thunderstorm Light Thunderstorms and Rain
3:30 PM 104.0 °F 103.4 °F 57.2 °F 21% 29.65 in 6.2 mi ENE 4.6 mph - N/A   Unknown
4:00 PM 102.2 °F 108.4 °F 68.0 °F 33% 29.65 in 6.2 mi West 12.7 mph - N/A   Unknown
4:30 PM 102.2 °F 106.9 °F 66.2 °F 31% 29.65 in 6.2 mi West 9.2 mph - N/A   Unknown
5:00 PM 101 °F - 72 °F 31% 29.65 in - West 15.0 mph - -  
5:00 PM 100.4 °F 111.9 °F 73.4 °F 42% 29.65 in 6.2 mi West 15.0 mph - N/A   Unknown
5:30 PM 102.2 °F 108.4 °F 68.0 °F 33% 29.62 in 6.2 mi West 15.0 mph - N/A   Unknown
6:00 PM 101 °F - 65 °F 22% 29.65 in - SW 15.0 mph - -  
6:00 PM 100.4 °F 104.9 °F 66.2 °F 33% 29.65 in 6.2 mi SW 15.0 mph - N/A   Unknown
6:30 PM 96.8 °F 107.3 °F 73.4 °F 47% 29.65 in 6.2 mi WSW 13.8 mph - N/A   Unknown
7:00 PM 91.4 °F 102.5 °F 75.2 °F 59% 29.68 in 6.2 mi WSW 17.3 mph - N/A   Unknown
7:30 PM 89.6 °F 98.2 °F 73.4 °F 59% 29.68 in 6.2 mi SW 16.1 mph - N/A   Unknown
8:00 PM 87 °F - 73 °F 54% 29.71 in - SSW 20.7 mph - -  
8:00 PM 87.8 °F 95.6 °F 73.4 °F 62% 29.71 in 6.2 mi SSW 20.7 mph - N/A   Unknown
8:30 PM 86.0 °F 93.4 °F 73.4 °F 66% 29.71 in 6.2 mi SSW 18.4 mph - N/A   Unknown
9:00 PM 85 °F - 73 °F 60% 29.72 in - SSW 18.4 mph - -  
9:00 PM 86.0 °F 93.4 °F 73.4 °F 66% 29.71 in 6.2 mi SSW 18.4 mph - N/A   Unknown
9:30 PM 84.2 °F 90.9 °F 73.4 °F 70% 29.71 in 6.2 mi SSW 16.1 mph - N/A   Unknown
10:00 PM 84.2 °F 90.9 °F 73.4 °F 70% 29.71 in 6.2 mi SSW 15.0 mph - N/A   Unknown
10:10 PM 84.2 °F 92.3 °F 75.2 °F 74% 29.71 in 6.2 mi SSW 17.3 mph 28.8 mph N/A   Unknown
10:30 PM 84.2 °F 92.3 °F 75.2 °F 74% 29.71 in 6.2 mi SSW 19.6 mph - N/A   Unknown
11:00 PM 83 °F - 74 °F 69% 29.74 in - SSW 20.7 mph - -  
11:00 PM 82.4 °F 89.5 °F 75.2 °F 79% 29.74 in 6.2 mi SSW 20.7 mph - N/A   Unknown
11:30 PM 82.4 °F 88.2 °F 73.4 °F 74% 29.71 in 6.2 mi SSW 16.1 mph - N/A   Unknown